www.pogodaiklimat.ru

Погода и климат >> Архив погоды >> Кот-д'Ивуар >> Yamoussoukro


ПОГОДА в Yamoussoukro

  • Прогноз погоды в Yamoussoukro
  • Монитор погоды в Yamoussoukro
  • Климат города

АРХИВ ПОГОДЫ в Yamoussoukro

Время (UTC), дата Ветер
(напр.,м/с)
 
Видим.   Явления Облачность Т
(С)
Тd
(С)
f
(%)
Тe
(С)
Тes
(С)
Комфортность P
(гПа)
Po
(гПа)
Тmin
(С)
Tmax
(С)
R
(мм)
R24
(мм)
S
(см)
00 17.05 ЮЗ 2 10 км гроза без осадков 9/5 300 м
[Cb cap Ac As]
+23.7 +22.6 94 +31 +31 очень
душно
1011.1 988.1
03 17.05 ЮЗ 2 10 км {гроза} 8/3 300 м
[Sc Ac trans Ci sp]
+23.1 +21.8 92 +31 +31 очень
душно
1009.3 986.3
06 17.05 ЮЗ 2 1500 м дымка {гроза} 9/8 90 м
[St]
+23.2 +22.9 98 +32 +32 очень
душно
1009.7 986.7 +22.5
09 17.05 ЮЗ 3 10 км {туман} 8/8 330 м
[Cu med, cong Ci sp]
+26.5 +23.2 82 +36 +37 очень
душно
1010.7 987.9
12 17.05 Ю 2 10 км {туман} 9/8 450 м
[Cu med, cong Ci sp]
+30.7 +23.2 64 +41 +45 опасность
перегрева
1009.9 987.4
15 17.05 Ю 3 10 км 9/6 450 м
[Cu med, cong Ci sp]
+32.1 +23.5 60 +43 +46 опасность
перегрева
1007.5 985.2
18 17.05 Ю 3 10 км гроза без осадков 9/1 400 м
[Cb cap Ci sp]
+26.3 +21.1 73 +33 +33 очень
душно
1008.1 985.3 +34.2
21 17.05 СВ 4 8000 м гроза, ливневой дождь 9/9 300 м
[Cb cap]
+22.3 +21.8 97 +30 +30 очень
душно
1011.8 988.7
00 18.05 ЮЗ 2 8000 м гроза без осадков {дождь} 9/9 300 м
[Cb cap]
+22.3 +21.9 98 +30 +30 очень
душно
1010.9 987.8 5
03 18.05 штиль 0 8000 м {гроза} 9/9 300 м
[Sc]
+22.1 +21.8 98 +29 +29 очень
душно
1009.3 986.2
06 18.05 штиль 0 2000 м дымка {гроза} 9/6 300 м
[Sc Ci sp]
+21.6 +21.5 99 +28 +28 очень
душно
1009.8 986.6 +21.5 5
09 18.05 СЗ 2 10 км 5/5 400 м
[Cu med, cong]
+25.4 +22.7 85 +33 +38 очень
душно
1011.4 988.5
12 18.05 ЮЗ 2 10 км 4/4 450 м
[Cu med, cong]
+29.7 +21.4 61 +38 +50 очень
душно
1010.1 987.6
15 18.05 ЮЗ 1 10 км 6/6 450 м
[Cu med, cong]
+32.5 +21.7 53 +41 +47 опасность
перегрева
1007.6 985.3
18 18.05 Ю 2 10 км 3/3 400 м
[Cu med, cong]
+29.9 +22.7 65 +39 +40 очень
душно
1007.9 985.5 +33.8
21 18.05 Ю 2 10 км ясно +25.7 +23.5 88 +35 +35 очень
душно
1010.5 987.6
00 19.05 штиль 0 10 км ясно +24.1 +23.1 94 +32 +32 очень
душно
1010.6 987.6
03 19.05 З 2 10 км ясно +23.4 +22.6 95 +32 +32 очень
душно
1009.6 986.6
06 19.05 ЮЗ 3 10 км 9/3 300 м
[Sc Ac trans]
+23.5 +22.7 95 +31 +31 очень
душно
1010.0 987.0 +23.2
09 19.05 ЮЗ 2 10 км 5/4 330 м
[Cu med, cong Ac trans]
+25.7 +23.4 87 +35 +39 очень
душно
1011.4 988.6
12 19.05 10 км н/о +30.2 +23.4 67 +41 +46 опасность
перегрева
1010.6 988.1
15 19.05 З 2 10 км 6/6 450 м
[Cu med, cong]
+31.9 +23.2 60 +42 +47 опасность
перегрева
1008.0 985.7
18 19.05 З 2 10 км в посл. час гроза 6/3 400 м
[Cu med, cong Ci sp]
+27.2 +23.0 78 +36 +37 очень
душно
1008.1 985.5 +33.1
21 19.05 штиль 0 10 км 3/3 330 м
[Sc]
+25.4 +23.5 89 +34 +34 очень
душно
1010.3 987.4
00 20.05 Ю 1 10 км ясно +24.7 +23.3 92 +33 +33 очень
душно
1011.0 988.0
03 20.05 ЮЗ 3 10 км ясно +23.7 +22.9 95 +31 +31 очень
душно
1009.5 986.5
06 20.05 ЮЗ 3 10 км 9/9 300 м
[Sc]
+23.9 +23.1 95 +32 +32 очень
душно
1009.7 986.7 +23.0
09 20.05 ЮЗ 3 10 км 8/8 330 м
[Cu med, cong]
+27.1 +23.0 78 +36 +38 очень
душно
1010.9 988.2
12 20.05 ЮЗ 2 10 км 8/8 450 м
[Cu med, cong]
+30.5 +23.6 67 +42 +46 опасность
перегрева
1009.7 987.2
18 20.05 Ю 2 10 км 9/3 450 м
[Cu med, cong Ci sp]
+31.4 +23.0 61 +42 +42 опасность
перегрева
1007.3 984.9 +34.3
21 20.05 Ю 2 10 км ясно +26.5 +22.0 76 +34 +34 очень
душно
1010.0 987.2
00 21.05 штиль 0 10 км ясно +24.0 +22.4 91 +31 +31 очень
душно
1010.8 987.9
03 21.05 ЮЗ 2 10 км ясно +23.3 +22.4 95 +32 +32 очень
душно
1009.7 986.7
06 21.05 ЮЗ 2 10 км 9/9 300 м
[Sc]
+23.5 +22.8 96 +31 +31 очень
душно
1009.7 986.7 +22.5
15 21.05 ЮЗ 2 10 км 5/5 450 м
[Cu med, cong Ci sp]
+32.8 +21.9 53 +41 +48 опасность
перегрева
1007.1 984.8
18 21.05 ЮЗ 2 10 км 8/3 450 м
[Cu med, cong Ci sp]
+31.5 +22.5 59 +41 +41 опасность
перегрева
1006.6 985.0 +34.2
21 21.05 штиль 0 10 км ясно +26.7 +24.0 85 +37 +37 очень
душно
1008.7 986.0
00 22.05 штиль 0 10 км ясно +25.3 +23.8 91 +34 +34 очень
душно
1010.1 987.2
06 22.05 ЮЗ 2 8000 м 9/9 300 м
[Sc]
+24.7 +23.5 93 +33 +33 очень
душно
1010.5 987.6 +24.5
09 22.05 ЮЗ 4 10 км 10/10 330 м
[Cu med, cong]
+26.8 +23.5 82 +36 +36 очень
душно
1011.1 988.4
12 22.05 ЮЗ 1 10 км 8/8 450 м
[Cu med, cong]
+30.5 +23.9 68 +42 +47 опасность
перегрева
1009.6 987.2
15 22.05 Ю 4 10 км 4/4 450 м
[Cu med, cong]
+33.2 +23.0 55 +43 +48 опасность
перегрева
1007.1 984.9
18 22.05 Ю 2 10 км 1/1 450 м
[Cu med, cong]
+32.2 +23.3 59 +43 +43 опасность
перегрева
1006.7 984.5 +35.5
21 22.05 Ю 2 10 км ясно +27.8 +24.5 82 +39 +39 очень
душно
1009.9 987.3
00 23.05 Ю 2 10 км 3/3 300 м
[Sc]
+26.0 +24.3 90 +36 +36 очень
душно
1011.5 988.7
03 23.05 ЮЗ 2 10 км ясно +24.7 +24.0 96 +34 +34 очень
душно
1010.3 987.4
06 23.05 ЮЗ 3 10 км 9/9 300 м
[Sc]
+25.1 +23.9 93 +34 +34 очень
душно
1009.9 987.0 +24.1
09 23.05 ЮЗ 4 10 км 9/9 400 м
[Cu med, cong]
+27.4 +23.6 80 +37 +38 очень
душно
1012.3 989.6
12 23.05 Ю 2 10 км 8/8 450 м
[Cu med, cong]
+31.6 +23.3 61 +42 +47 опасность
перегрева
1011.0 988.5
18 23.05 Ю 3 10 км 1/1 450 м
[Cb cap]
+32.5 +22.4 55 +42 +42 опасность
перегрева
1008.2 985.9 +35.5
21 23.05 ЮЗ 2 8000 м гроза, ливневой дождь 9/9 300 м
[Cb cap]
+23.4 +21.8 91 +32 +32 очень
душно
1012.1 989.0

 

Местоположение метеостанции Yamoussoukro (Кот-д'Ивуар): широта 6.90 долгота -5.35 высота над уровнем моря 213 м.

В архиве по умолчанию представлена погода в Yamoussoukro за последнюю неделю. Архивные данные за месяц целиком и за предыдущие месяцы, начиная с января 2011 года, Вы можете получить, выбрав интересующий диапазон дат из раскрывающегося списка и нажав кнопку "Ввод!".


*Определитесь, кто Вы:
робот инопланетянин человек

Внимание! Время в таблицах - всемирное. Для получения местного времени необходимо прибавить поправку, которая в Yamoussoukro равна 0 ч.

Смотрите также архив погоды в соседних городах и на ближайших метеорологических станциях:

Погода в Dimbokro (Кот-д'Ивуар) (77 км)
Погода в Bouake (Кот-д'Ивуар) (98 км)
Погода в Gagnoa (Кот-д'Ивуар) (108 км)
Погода в Daloa (Кот-д'Ивуар) (124 км)
Погода в Sassandra (Кот-д'Ивуар) (231 км)
Погода в Abidjan (Кот-д'Ивуар) (242 км)
Погода в Man (Кот-д'Ивуар) (245 км)
Погода в San Pedro (Кот-д'Ивуар) (279 км)
Погода в Korhogo (Кот-д'Ивуар) (282 км)
Погода в Adiake (Кот-д'Ивуар) (288 км)

Пояснения к столбцам:

Ветер - указаны скорость ветра в м/с - средняя за 10 мин, порывы в срок и между сроками (в фигурных скобках) и направление, откуда дует ветер: С - северный, СВ - северо-восточный, В - восточный, ЮВ - юго-восточный, Ю - южный, ЮЗ - юго-западный, З - западный, СЗ - северо-западный.
Видимость - горизонтальная дальность видимости в метрах или километрах. При видимости от 1 до 10 км при отсутствии осадков обычно наблюдается дымка, при ухудшении видимости до 1 км и менее - туман. В сухую погоду видимость может ухудшаться дымом, пылью или мглою.
Явления - указаны атмосферные явления, наблюдавшиеся в срок или в последний час перед сроком; фигурными скобками обозначены явления, наблюдавшиеся между сроками (за 1-3 часа до срока); квадратными скобками обозначены град или гололедные отложения с указанием их диаметра в мм.
Облачность - указаны через наклонную черту общая и нижняя облачность в баллах и высота нижней границы облаков в метрах; квадратными скобками обозначены формы облаков: Ci - перистые, Cs - перисто-слоистые, Cc - перисто-кучевые, Ac - высококучевые, As - высокослоистые, Sc - слоисто-кучевые, Ns - слоисто-дождевые, Cu - кучевые, Cb - кучево-дождевые. Подробнее классификацию облаков см. в Атласе облаков (PDF).
T - Температура воздуха - температура, измеренная на высоте 2 м над землей.
Td - Температура точки росы - температура, при понижении до которой содержащийся в воздухе водяной пар достигнет насыщения.
f - Относительная влажность воздуха - влажноcть воздуха, измеренная на высоте 2 м над землей.
Te - Эффективная температура - температура, которую ощущает одетый по сезону человек в тени. Характеристика душности погоды. При расчете учитывается влияние влажности воздуха и скорости ветра на теплоощущения человека.
Tes - Эффективная температура на солнце - температура, которую ощущает человек, с поправкой на солнечный нагрев. Характеристика знойности погоды. Зависит от высоты солнца над горизонтом, облачности и скорости ветра. Ночью, в пасмурную погоду, а также при ветре 12 м/с и более поправка равна нулю.
P - Атмосферное давление - приведенное к уровню моря атмосферное давление.
Po - Атмосферное давление - измеренное на уровне метеостанции атмосферное давление.
Tmin - Минимальная температура - минимум температуры воздуха на высоте 2 м над землей.
Tmax - Максимальная температура - максимум температуры воздуха на высоте 2 м над землей.
R - Количество осадков - Количество выпавших осадков за период времени, мм. При наведении курсора мыши на число - период времени, за который выпало указанное количество осадков.
R24 - Количество осадков - Количество выпавших осадков за 24 часа, мм.
S - Снежный покров - Высота снежного покрова, см. При наведении курсора мыши на число - состояние снежного покрова и степень покрытия местности в баллах.